Tracking 28794 objects as of 19-Apr-2024
HD Live streaming from Space Station
objects crossing your sky now

COSMOS 886 DEB

Track COSMOS 886 DEB now!
10-day predictions


NORAD ID: 9962
Int'l Code: 1976-126BC
Perigee: 535.6 km
Apogee: 1,437.5 km
Inclination: 65.8 °
Period: 104.7 minutes
Semi major axis: 7357 km
RCS: 0.1661 m2 (medium)
Launch date: December 27, 1976
Source: Commonwealth of Independent States (former USSR) (CIS)
Launch site: TYURATAM MISSILE AND SPACE COMPLEX (TTMTR)

Note: This is SATELLITE DEBRIS
Your satellite tracking list
Your tracking list is empty




NASA's NSSDC Master Catalog

Two Line Element Set (TLE):
1 09962U 76126BC  24110.57092316  .00025752  00000-0  64868-2 0  9994
2 09962  65.7702 187.0085 0612883 209.8893 146.5829 13.75635158286927
Source of the keplerian elements: AFSPC